Time,TemperatureF,DewpointF,PressureIn,WindDirection,WindDirectionDegrees,WindSpeedMPH,WindSpeedGustMPH,Humidity,HourlyPrecipIn,Conditions,Clouds,dailyrainin,SoftwareType,DateUTC
2013-06-09 00:01:00,60.9,57.0,29.29,South,180,2.0,2.0,87,0.00,,,0.00,Rainwise IP-100,2013-06-09 04:01:00,
2013-06-09 00:06:00,60.8,57.0,29.29,SSE,157,1.0,3.0,87,0.00,,,0.00,Rainwise IP-100,2013-06-09 04:06:00,
2013-06-09 00:11:00,60.6,56.5,29.29,South,180,2.0,2.0,87,0.00,,,0.00,Rainwise IP-100,2013-06-09 04:11:00,
2013-06-09 00:16:00,60.5,56.5,29.29,South,180,1.0,2.0,87,0.00,,,0.00,Rainwise IP-100,2013-06-09 04:16:00,
2013-06-09 00:20:00,60.5,56.5,29.29,South,180,2.0,2.0,87,0.00,,,0.00,Rainwise IP-100,2013-06-09 04:20:00,
2013-06-09 00:25:00,60.3,56.5,29.29,South,180,0.0,2.0,87,0.00,,,0.00,Rainwise IP-100,2013-06-09 04:25:00,
2013-06-09 00:30:00,59.9,56.5,29.29,SW,225,0.0,1.0,88,0.00,,,0.00,Rainwise IP-100,2013-06-09 04:30:00,
2013-06-09 00:35:00,59.7,56.0,29.29,SW,225,1.0,1.0,89,0.00,,,0.00,Rainwise IP-100,2013-06-09 04:35:00,
2013-06-09 00:39:00,59.6,56.0,29.29,SW,225,2.0,2.0,89,0.00,,,0.00,Rainwise IP-100,2013-06-09 04:39:00,
2013-06-09 00:44:00,59.5,56.0,29.29,SW,225,1.0,2.0,89,0.00,,,0.00,Rainwise IP-100,2013-06-09 04:44:00,
2013-06-09 00:49:00,59.4,56.0,29.29,SW,225,0.0,2.0,89,0.00,,,0.00,Rainwise IP-100,2013-06-09 04:49:00,
2013-06-09 00:54:00,59.2,56.0,29.29,SW,225,1.0,2.0,89,0.00,,,0.00,Rainwise IP-100,2013-06-09 04:54:00,
2013-06-09 00:59:00,59.1,56.0,29.29,South,180,2.0,2.0,89,0.00,,,0.00,Rainwise IP-100,2013-06-09 04:59:00,
2013-06-09 01:04:00,59.0,56.0,29.29,South,180,1.0,2.0,89,0.00,,,0.00,Rainwise IP-100,2013-06-09 05:04:00,
2013-06-09 01:09:00,58.9,56.0,29.29,South,180,2.0,2.0,89,0.00,,,0.00,Rainwise IP-100,2013-06-09 05:09:00,
2013-06-09 01:14:00,58.4,55.0,29.28,South,180,2.0,2.0,90,0.00,,,0.00,Rainwise IP-100,2013-06-09 05:14:00,
2013-06-09 01:19:00,58.2,56.0,29.28,SSE,157,1.0,2.0,91,0.00,,,0.00,Rainwise IP-100,2013-06-09 05:19:00,
2013-06-09 01:24:00,58.2,56.0,29.29,SW,225,2.0,2.0,91,0.00,,,0.00,Rainwise IP-100,2013-06-09 05:24:00,
2013-06-09 01:29:00,58.0,56.0,29.29,SW,225,2.0,2.0,91,0.00,,,0.00,Rainwise IP-100,2013-06-09 05:29:00,
2013-06-09 01:34:00,57.5,55.0,29.29,SW,225,1.0,2.0,91,0.00,,,0.00,Rainwise IP-100,2013-06-09 05:34:00,
2013-06-09 01:39:00,57.1,54.5,29.29,SSW,202,2.0,2.0,91,0.00,,,0.00,Rainwise IP-100,2013-06-09 05:39:00,
2013-06-09 01:44:00,57.3,55.0,29.29,SW,225,2.0,2.0,92,0.00,,,0.00,Rainwise IP-100,2013-06-09 05:44:00,
2013-06-09 01:49:00,57.2,54.5,29.29,South,180,1.0,3.0,92,0.00,,,0.00,Rainwise IP-100,2013-06-09 05:49:00,
2013-06-09 01:54:00,57.5,55.0,29.29,South,180,2.0,3.0,91,0.00,,,0.00,Rainwise IP-100,2013-06-09 05:54:00,
2013-06-09 01:59:00,57.3,55.0,29.29,SSW,202,2.0,3.0,91,0.00,,,0.00,Rainwise IP-100,2013-06-09 05:59:00,
2013-06-09 02:04:00,57.4,55.0,29.29,SW,225,2.0,3.0,91,0.00,,,0.00,Rainwise IP-100,2013-06-09 06:04:00,
2013-06-09 02:09:00,57.2,54.5,29.29,SSW,202,2.0,3.0,91,0.00,,,0.00,Rainwise IP-100,2013-06-09 06:09:00,
2013-06-09 02:14:00,57.1,54.5,29.28,SSW,202,2.0,3.0,91,0.00,,,0.00,Rainwise IP-100,2013-06-09 06:14:00,
2013-06-09 02:19:00,57.0,54.5,29.28,South,180,1.0,4.0,91,0.00,,,0.00,Rainwise IP-100,2013-06-09 06:19:00,
2013-06-09 02:24:00,56.9,54.5,29.28,South,180,2.0,3.0,92,0.00,,,0.00,Rainwise IP-100,2013-06-09 06:24:00,
2013-06-09 02:29:00,57.3,55.0,29.28,SSW,202,2.0,4.0,91,0.00,,,0.00,Rainwise IP-100,2013-06-09 06:29:00,
2013-06-09 02:34:00,57.3,55.0,29.29,SSW,202,2.0,2.0,91,0.00,,,0.00,Rainwise IP-100,2013-06-09 06:34:00,
2013-06-09 02:39:00,57.2,54.5,29.29,SSW,202,1.0,2.0,91,0.00,,,0.00,Rainwise IP-100,2013-06-09 06:39:00,
2013-06-09 02:44:00,56.9,54.5,29.29,South,180,2.0,2.0,91,0.00,,,0.00,Rainwise IP-100,2013-06-09 06:44:00,
2013-06-09 02:49:00,56.7,54.5,29.29,South,180,2.0,4.0,93,0.00,,,0.00,Rainwise IP-100,2013-06-09 06:49:00,
2013-06-09 02:51:00,56.7,54.5,29.29,South,180,2.0,4.0,93,0.00,,,0.00,Rainwise IP-100,2013-06-09 06:51:00,
2013-06-09 02:56:00,56.6,54.5,29.29,South,180,2.0,3.0,93,0.00,,,0.00,Rainwise IP-100,2013-06-09 06:56:00,
2013-06-09 03:01:00,56.4,54.5,29.29,SSE,157,2.0,3.0,94,0.00,,,0.00,Rainwise IP-100,2013-06-09 07:01:00,
2013-06-09 03:06:00,56.4,54.5,29.29,WSW,247,1.0,2.0,93,0.00,,,0.00,Rainwise IP-100,2013-06-09 07:06:00,
2013-06-09 03:11:00,56.0,54.0,29.29,WSW,247,1.0,2.0,94,0.00,,,0.00,Rainwise IP-100,2013-06-09 07:11:00,
2013-06-09 03:16:00,55.8,54.0,29.29,WSW,247,2.0,2.0,94,0.00,,,0.00,Rainwise IP-100,2013-06-09 07:16:00,
2013-06-09 03:21:00,55.7,54.5,29.29,SW,225,1.0,2.0,95,0.00,,,0.00,Rainwise IP-100,2013-06-09 07:21:00,
2013-06-09 03:26:00,55.6,54.5,29.29,SSW,202,2.0,3.0,95,0.00,,,0.00,Rainwise IP-100,2013-06-09 07:26:00,
2013-06-09 03:31:00,55.3,54.0,29.29,SW,225,2.0,2.0,95,0.00,,,0.00,Rainwise IP-100,2013-06-09 07:31:00,
2013-06-09 03:36:00,55.3,54.0,29.29,SW,225,1.0,4.0,95,0.00,,,0.00,Rainwise IP-100,2013-06-09 07:36:00,
2013-06-09 03:41:00,55.4,53.5,29.29,South,180,2.0,2.0,94,0.00,,,0.00,Rainwise IP-100,2013-06-09 07:41:00,
2013-06-09 03:46:00,55.6,54.0,29.29,South,180,1.0,4.0,94,0.00,,,0.00,Rainwise IP-100,2013-06-09 07:46:00,
2013-06-09 03:51:00,55.5,54.0,29.29,SSE,157,1.0,4.0,94,0.00,,,0.00,Rainwise IP-100,2013-06-09 07:51:00,
2013-06-09 03:56:00,55.7,54.5,29.30,SE,135,2.0,4.0,95,0.00,,,0.00,Rainwise IP-100,2013-06-09 07:56:00,
2013-06-09 04:01:00,55.9,54.5,29.30,SE,135,2.0,3.0,95,0.00,,,0.00,Rainwise IP-100,2013-06-09 08:01:00,
2013-06-09 04:06:00,55.9,54.0,29.30,SE,135,0.0,2.0,94,0.00,,,0.00,Rainwise IP-100,2013-06-09 08:06:00,
2013-06-09 04:11:00,55.9,54.0,29.31,SE,135,0.0,1.0,94,0.00,,,0.00,Rainwise IP-100,2013-06-09 08:11:00,
2013-06-09 04:16:00,55.9,54.5,29.30,SSE,157,1.0,2.0,95,0.00,,,0.00,Rainwise IP-100,2013-06-09 08:16:00,
2013-06-09 04:21:00,55.9,54.5,29.31,SSE,157,0.0,2.0,95,0.00,,,0.00,Rainwise IP-100,2013-06-09 08:21:00,
2013-06-09 04:26:00,55.9,54.5,29.31,SSE,157,0.0,2.0,95,0.00,,,0.00,Rainwise IP-100,2013-06-09 08:26:00,
2013-06-09 04:31:00,55.8,54.5,29.31,SSE,157,0.0,0.0,95,0.00,,,0.00,Rainwise IP-100,2013-06-09 08:31:00,
2013-06-09 04:36:00,55.7,54.5,29.31,SSE,157,0.0,0.0,96,0.00,,,0.00,Rainwise IP-100,2013-06-09 08:36:00,
2013-06-09 04:41:00,55.5,54.5,29.31,SSE,157,0.0,0.0,95,0.00,,,0.00,Rainwise IP-100,2013-06-09 08:41:00,
2013-06-09 04:46:00,55.3,54.0,29.31,SSE,157,2.0,2.0,96,0.00,,,0.00,Rainwise IP-100,2013-06-09 08:46:00,
2013-06-09 04:51:00,55.3,54.0,29.31,SSW,202,1.0,2.0,96,0.00,,,0.00,Rainwise IP-100,2013-06-09 08:51:00,
2013-06-09 04:56:00,55.4,54.0,29.31,SSW,202,1.0,2.0,96,0.00,,,0.00,Rainwise IP-100,2013-06-09 08:56:00,
2013-06-09 05:01:00,55.5,54.5,29.31,SSW,202,1.0,2.0,95,0.00,,,0.00,Rainwise IP-100,2013-06-09 09:01:00,
2013-06-09 05:06:00,55.4,54.0,29.31,SSW,202,1.0,2.0,96,0.00,,,0.00,Rainwise IP-100,2013-06-09 09:06:00,
2013-06-09 05:11:00,55.6,54.5,29.32,SSW,202,2.0,2.0,96,0.00,,,0.00,Rainwise IP-100,2013-06-09 09:11:00,
2013-06-09 05:16:00,55.7,54.5,29.32,SSW,202,1.0,2.0,96,0.00,,,0.00,Rainwise IP-100,2013-06-09 09:16:00,
2013-06-09 05:21:00,55.7,54.5,29.32,SSW,202,0.0,2.0,95,0.00,,,0.00,Rainwise IP-100,2013-06-09 09:21:00,
2013-06-09 05:26:00,55.5,54.5,29.32,SSW,202,2.0,2.0,96,0.00,,,0.00,Rainwise IP-100,2013-06-09 09:26:00,
2013-06-09 05:31:00,55.4,54.0,29.32,SSW,202,2.0,2.0,96,0.00,,,0.00,Rainwise IP-100,2013-06-09 09:31:00,
2013-06-09 05:36:00,55.4,54.5,29.32,SSW,202,0.0,2.0,97,0.00,,,0.00,Rainwise IP-100,2013-06-09 09:36:00,
2013-06-09 05:41:00,55.2,54.5,29.33,SSW,202,0.0,0.0,97,0.00,,,0.00,Rainwise IP-100,2013-06-09 09:41:00,
2013-06-09 05:46:00,54.9,54.5,29.33,SSW,202,0.0,0.0,97,0.00,,,0.00,Rainwise IP-100,2013-06-09 09:46:00,
2013-06-09 05:51:00,54.9,54.5,29.33,South,180,1.0,2.0,97,0.00,,,0.00,Rainwise IP-100,2013-06-09 09:51:00,
2013-06-09 05:56:00,55.1,54.5,29.33,SSW,202,1.0,2.0,97,0.00,,,0.00,Rainwise IP-100,2013-06-09 09:56:00,
2013-06-09 06:01:00,55.3,54.5,29.33,SSW,202,2.0,2.0,97,0.00,,,0.00,Rainwise IP-100,2013-06-09 10:01:00,
2013-06-09 06:06:00,55.5,55.0,29.33,South,180,2.0,2.0,97,0.00,,,0.00,Rainwise IP-100,2013-06-09 10:06:00,
2013-06-09 06:11:00,55.6,55.0,29.33,SSE,157,2.0,3.0,97,0.00,,,0.00,Rainwise IP-100,2013-06-09 10:11:00,
2013-06-09 06:16:00,55.9,55.0,29.34,SSW,202,1.0,3.0,97,0.00,,,0.00,Rainwise IP-100,2013-06-09 10:16:00,
2013-06-09 06:21:00,56.2,54.5,29.34,SW,225,2.0,2.0,96,0.00,,,0.00,Rainwise IP-100,2013-06-09 10:21:00,
2013-06-09 06:26:00,56.3,55.0,29.34,SW,225,1.0,2.0,95,0.00,,,0.00,Rainwise IP-100,2013-06-09 10:26:00,
2013-06-09 06:31:00,56.4,55.0,29.35,SW,225,0.0,2.0,95,0.00,,,0.00,Rainwise IP-100,2013-06-09 10:31:00,
2013-06-09 06:36:00,56.4,55.0,29.35,SW,225,0.0,0.0,96,0.00,,,0.00,Rainwise IP-100,2013-06-09 10:36:00,
2013-06-09 06:41:00,56.5,55.0,29.35,SW,225,1.0,2.0,96,0.00,,,0.00,Rainwise IP-100,2013-06-09 10:41:00,
2013-06-09 06:46:00,56.5,55.0,29.35,SW,225,1.0,2.0,96,0.00,,,0.00,Rainwise IP-100,2013-06-09 10:46:00,
2013-06-09 06:51:00,56.3,55.0,29.35,South,180,2.0,2.0,96,0.00,,,0.00,Rainwise IP-100,2013-06-09 10:51:00,
2013-06-09 06:56:00,56.6,56.0,29.35,SSE,157,1.0,2.0,97,0.00,,,0.00,Rainwise IP-100,2013-06-09 10:56:00,
2013-06-09 07:01:00,56.9,56.0,29.36,SSE,157,1.0,2.0,96,0.00,,,0.00,Rainwise IP-100,2013-06-09 11:01:00,
2013-06-09 07:06:00,57.3,56.5,29.36,South,180,2.0,2.0,96,0.00,,,0.00,Rainwise IP-100,2013-06-09 11:06:00,
2013-06-09 07:11:00,57.9,56.5,29.37,SSE,157,2.0,2.0,93,0.00,,,0.00,Rainwise IP-100,2013-06-09 11:11:00,
2013-06-09 07:16:00,58.9,57.0,29.37,SSW,202,1.0,2.0,93,0.00,,,0.00,Rainwise IP-100,2013-06-09 11:16:00,
2013-06-09 07:21:00,59.8,57.0,29.37,SW,225,0.0,2.0,91,0.00,,,0.00,Rainwise IP-100,2013-06-09 11:21:00,
2013-06-09 07:26:00,60.8,56.5,29.38,SSE,157,2.0,2.0,86,0.00,,,0.00,Rainwise IP-100,2013-06-09 11:26:00,
2013-06-09 07:31:00,61.6,56.5,29.38,SSW,202,0.0,2.0,83,0.00,,,0.00,Rainwise IP-100,2013-06-09 11:31:00,
2013-06-09 07:36:00,62.3,55.0,29.38,SSW,202,2.0,4.0,78,0.00,,,0.00,Rainwise IP-100,2013-06-09 11:36:00,
2013-06-09 07:41:00,63.2,55.0,29.39,SSW,202,2.0,4.0,76,0.00,,,0.00,Rainwise IP-100,2013-06-09 11:41:00,
2013-06-09 07:46:00,62.7,55.0,29.39,SW,225,1.0,4.0,77,0.00,,,0.00,Rainwise IP-100,2013-06-09 11:46:00,
2013-06-09 07:51:00,63.0,56.0,29.39,West,270,1.0,4.0,78,0.00,,,0.00,Rainwise IP-100,2013-06-09 11:51:00,
2013-06-09 07:56:00,63.6,56.0,29.39,SSW,202,0.0,2.0,77,0.00,,,0.00,Rainwise IP-100,2013-06-09 11:56:00,
2013-06-09 08:01:00,63.9,56.5,29.39,SW,225,1.0,2.0,77,0.00,,,0.00,Rainwise IP-100,2013-06-09 12:01:00,
2013-06-09 08:06:00,63.9,56.5,29.39,West,270,1.0,4.0,76,0.00,,,0.00,Rainwise IP-100,2013-06-09 12:06:00,
2013-06-09 08:11:00,63.5,55.0,29.40,West,270,1.0,6.0,75,0.00,,,0.00,Rainwise IP-100,2013-06-09 12:11:00,
2013-06-09 08:16:00,63.9,56.5,29.40,West,270,0.0,4.0,76,0.00,,,0.00,Rainwise IP-100,2013-06-09 12:16:00,
2013-06-09 08:21:00,63.7,55.0,29.41,West,270,4.0,6.0,75,0.00,,,0.00,Rainwise IP-100,2013-06-09 12:21:00,
2013-06-09 08:26:00,63.8,56.0,29.41,West,270,1.0,6.0,75,0.00,,,0.00,Rainwise IP-100,2013-06-09 12:26:00,
2013-06-09 08:31:00,63.9,56.0,29.41,SW,225,2.0,5.0,75,0.00,,,0.00,Rainwise IP-100,2013-06-09 12:31:00,
2013-06-09 08:36:00,64.6,56.5,29.41,WSW,247,0.0,4.0,75,0.00,,,0.00,Rainwise IP-100,2013-06-09 12:36:00,
2013-06-09 08:41:00,65.6,56.0,29.41,SSW,202,2.0,4.0,72,0.00,,,0.00,Rainwise IP-100,2013-06-09 12:41:00,
2013-06-09 08:46:00,65.8,57.0,29.41,NW,315,0.0,4.0,73,0.00,,,0.00,Rainwise IP-100,2013-06-09 12:46:00,
2013-06-09 08:51:00,66.2,55.0,29.41,South,180,4.0,6.0,68,0.00,,,0.00,Rainwise IP-100,2013-06-09 12:51:00,
2013-06-09 08:56:00,65.9,56.5,29.41,ENE,67,2.0,4.0,72,0.00,,,0.00,Rainwise IP-100,2013-06-09 12:56:00,
2013-06-09 09:02:00,66.9,57.5,29.42,NE,45,2.0,2.0,72,0.00,,,0.00,Rainwise IP-100,2013-06-09 13:02:00,
2013-06-09 09:07:00,67.6,58.0,29.42,SE,135,2.0,2.0,72,0.00,,,0.00,Rainwise IP-100,2013-06-09 13:07:00,
2013-06-09 09:12:00,67.4,57.5,29.42,NNE,22,1.0,3.0,71,0.00,,,0.00,Rainwise IP-100,2013-06-09 13:12:00,
2013-06-09 09:17:00,68.0,56.5,29.42,South,180,2.0,4.0,67,0.00,,,0.00,Rainwise IP-100,2013-06-09 13:17:00,
2013-06-09 09:22:00,68.6,57.5,29.42,North,360,2.0,2.0,69,0.00,,,0.00,Rainwise IP-100,2013-06-09 13:22:00,
2013-06-09 09:27:00,69.1,59.5,29.42,North,360,0.0,4.0,72,0.00,,,0.00,Rainwise IP-100,2013-06-09 13:27:00,
2013-06-09 09:32:00,68.4,57.5,29.42,NE,45,1.0,2.0,69,0.00,,,0.00,Rainwise IP-100,2013-06-09 13:32:00,
2013-06-09 09:37:00,68.4,57.5,29.42,NE,45,2.0,3.0,69,0.00,,,0.00,Rainwise IP-100,2013-06-09 13:37:00,
2013-06-09 09:42:00,69.3,57.5,29.42,SE,135,1.0,2.0,66,0.00,,,0.00,Rainwise IP-100,2013-06-09 13:42:00,
2013-06-09 09:47:00,68.7,59.0,29.42,ESE,112,2.0,3.0,71,0.00,,,0.00,Rainwise IP-100,2013-06-09 13:47:00,
2013-06-09 09:52:00,69.2,59.0,29.42,SSW,202,2.0,2.0,70,0.00,,,0.00,Rainwise IP-100,2013-06-09 13:52:00,
2013-06-09 09:57:00,68.9,58.0,29.43,ESE,112,1.0,5.0,69,0.00,,,0.00,Rainwise IP-100,2013-06-09 13:57:00,
2013-06-09 10:02:00,69.5,59.5,29.43,North,360,2.0,2.0,70,0.00,,,0.00,Rainwise IP-100,2013-06-09 14:02:00,
2013-06-09 10:07:00,69.2,57.0,29.43,NE,45,1.0,4.0,65,0.00,,,0.00,Rainwise IP-100,2013-06-09 14:07:00,
2013-06-09 10:12:00,68.1,56.5,29.42,ESE,112,1.0,4.0,67,0.00,,,0.00,Rainwise IP-100,2013-06-09 14:12:00,
2013-06-09 10:17:00,68.3,59.0,29.42,SE,135,2.0,3.0,71,0.00,,,0.00,Rainwise IP-100,2013-06-09 14:17:00,
2013-06-09 10:22:00,68.7,59.0,29.42,ESE,112,2.0,3.0,72,0.00,,,0.00,Rainwise IP-100,2013-06-09 14:22:00,
2013-06-09 10:27:00,68.4,57.5,29.42,East,90,0.0,3.0,69,0.00,,,0.00,Rainwise IP-100,2013-06-09 14:27:00,
2013-06-09 10:32:00,69.6,59.0,29.43,SE,135,5.0,5.0,68,0.00,,,0.00,Rainwise IP-100,2013-06-09 14:32:00,
2013-06-09 10:37:00,69.0,57.0,29.43,SE,135,1.0,5.0,66,0.00,,,0.00,Rainwise IP-100,2013-06-09 14:37:00,
2013-06-09 10:42:00,69.1,58.0,29.42,ESE,112,2.0,4.0,69,0.00,,,0.00,Rainwise IP-100,2013-06-09 14:42:00,
2013-06-09 10:47:00,69.0,57.5,29.42,ENE,67,1.0,4.0,67,0.00,,,0.00,Rainwise IP-100,2013-06-09 14:47:00,
2013-06-09 10:52:00,69.5,59.0,29.42,SE,135,2.0,3.0,69,0.00,,,0.00,Rainwise IP-100,2013-06-09 14:52:00,
2013-06-09 10:57:00,69.4,57.5,29.42,SE,135,1.0,3.0,67,0.00,,,0.00,Rainwise IP-100,2013-06-09 14:57:00,
2013-06-09 11:02:00,69.5,59.0,29.42,NNW,337,0.0,2.0,68,0.00,,,0.00,Rainwise IP-100,2013-06-09 15:02:00,
2013-06-09 11:07:00,70.9,59.0,29.42,SE,135,1.0,3.0,66,0.00,,,0.00,Rainwise IP-100,2013-06-09 15:07:00,
2013-06-09 11:12:00,70.3,57.0,29.42,SE,135,2.0,4.0,62,0.00,,,0.00,Rainwise IP-100,2013-06-09 15:12:00,
2013-06-09 11:17:00,70.3,57.5,29.42,SE,135,2.0,3.0,64,0.00,,,0.00,Rainwise IP-100,2013-06-09 15:17:00,
2013-06-09 11:22:00,70.9,56.5,29.42,SE,135,2.0,4.0,61,0.00,,,0.00,Rainwise IP-100,2013-06-09 15:22:00,
2013-06-09 11:27:00,70.7,57.0,29.42,SE,135,0.0,3.0,63,0.00,,,0.00,Rainwise IP-100,2013-06-09 15:27:00,
2013-06-09 11:32:00,70.5,57.5,29.42,NW,315,0.0,4.0,64,0.00,,,0.00,Rainwise IP-100,2013-06-09 15:32:00,
2013-06-09 11:37:00,70.9,56.5,29.43,NNE,22,2.0,8.0,61,0.00,,,0.00,Rainwise IP-100,2013-06-09 15:37:00,
2013-06-09 11:42:00,70.3,57.0,29.43,NE,45,2.0,6.0,63,0.00,,,0.00,Rainwise IP-100,2013-06-09 15:42:00,
2013-06-09 11:47:00,71.0,56.5,29.42,NNE,22,3.0,6.0,61,0.00,,,0.00,Rainwise IP-100,2013-06-09 15:47:00,
2013-06-09 11:52:00,71.1,57.5,29.42,NNE,22,4.0,7.0,63,0.00,,,0.00,Rainwise IP-100,2013-06-09 15:52:00,
2013-06-09 11:57:00,71.4,59.5,29.42,East,90,2.0,7.0,66,0.00,,,0.00,Rainwise IP-100,2013-06-09 15:57:00,
2013-06-09 12:02:00,70.9,57.0,29.42,SE,135,1.0,7.0,62,0.00,,,0.00,Rainwise IP-100,2013-06-09 16:02:00,
2013-06-09 12:07:00,71.4,57.0,29.42,NNE,22,4.0,4.0,61,0.00,,,0.00,Rainwise IP-100,2013-06-09 16:07:00,
2013-06-09 12:12:00,71.1,56.5,29.42,North,360,5.0,7.0,61,0.00,,,0.00,Rainwise IP-100,2013-06-09 16:12:00,
2013-06-09 12:17:00,70.9,56.0,29.42,NNE,22,4.0,7.0,59,0.00,,,0.00,Rainwise IP-100,2013-06-09 16:17:00,
2013-06-09 12:22:00,71.9,56.0,29.42,NNE,22,5.0,6.0,57,0.00,,,0.00,Rainwise IP-100,2013-06-09 16:22:00,
2013-06-09 12:27:00,71.1,56.5,29.42,North,360,6.0,7.0,61,0.00,,,0.00,Rainwise IP-100,2013-06-09 16:27:00,
2013-06-09 12:32:00,69.4,55.0,29.42,NNE,22,2.0,7.0,61,0.00,,,0.00,Rainwise IP-100,2013-06-09 16:32:00,
2013-06-09 12:37:00,69.9,56.0,29.42,NE,45,5.0,8.0,61,0.00,,,0.00,Rainwise IP-100,2013-06-09 16:37:00,
2013-06-09 12:42:00,70.4,55.0,29.42,NNE,22,5.0,7.0,59,0.00,,,0.00,Rainwise IP-100,2013-06-09 16:42:00,
2013-06-09 12:47:00,70.1,56.5,29.42,NNE,22,6.0,7.0,62,0.00,,,0.00,Rainwise IP-100,2013-06-09 16:47:00,
2013-06-09 12:52:00,70.9,56.5,29.41,NE,45,4.0,7.0,61,0.00,,,0.00,Rainwise IP-100,2013-06-09 16:52:00,
2013-06-09 12:57:00,71.6,57.5,29.41,NNE,22,3.0,8.0,62,0.00,,,0.00,Rainwise IP-100,2013-06-09 16:57:00,
2013-06-09 13:02:00,71.3,57.5,29.41,North,360,5.0,11.0,62,0.00,,,0.00,Rainwise IP-100,2013-06-09 17:02:00,
2013-06-09 13:07:00,70.4,55.0,29.41,NE,45,4.0,8.0,59,0.00,,,0.00,Rainwise IP-100,2013-06-09 17:07:00,
2013-06-09 13:12:00,70.2,54.5,29.41,NNE,22,2.0,9.0,58,0.00,,,0.00,Rainwise IP-100,2013-06-09 17:12:00,
2013-06-09 13:17:00,70.3,56.5,29.41,North,360,6.0,8.0,61,0.00,,,0.00,Rainwise IP-100,2013-06-09 17:17:00,
2013-06-09 13:22:00,70.7,54.5,29.41,NE,45,2.0,9.0,57,0.00,,,0.00,Rainwise IP-100,2013-06-09 17:22:00,
2013-06-09 13:27:00,71.1,56.5,29.41,North,360,2.0,9.0,61,0.00,,,0.00,Rainwise IP-100,2013-06-09 17:27:00,
2013-06-09 13:32:00,71.7,54.5,29.41,NNE,22,4.0,8.0,55,0.00,,,0.00,Rainwise IP-100,2013-06-09 17:32:00,
2013-06-09 13:37:00,70.9,55.0,29.41,NNE,22,8.0,9.0,58,0.00,,,0.00,Rainwise IP-100,2013-06-09 17:37:00,
2013-06-09 13:42:00,71.3,56.5,29.40,NNW,337,5.0,9.0,60,0.00,,,0.00,Rainwise IP-100,2013-06-09 17:42:00,
2013-06-09 13:47:00,71.5,59.0,29.40,NNE,22,3.0,8.0,64,0.00,,,0.00,Rainwise IP-100,2013-06-09 17:47:00,
2013-06-09 13:52:00,71.7,56.5,29.41,North,360,4.0,7.0,59,0.00,,,0.00,Rainwise IP-100,2013-06-09 17:52:00,
2013-06-09 13:57:00,70.4,53.5,29.40,NNE,22,4.0,9.0,55,0.00,,,0.00,Rainwise IP-100,2013-06-09 17:57:00,
2013-06-09 14:02:00,70.9,54.5,29.40,North,360,2.0,9.0,56,0.00,,,0.00,Rainwise IP-100,2013-06-09 18:02:00,
2013-06-09 14:07:00,71.7,56.0,29.40,North,360,5.0,8.0,58,0.00,,,0.00,Rainwise IP-100,2013-06-09 18:07:00,
2013-06-09 14:12:00,71.2,54.0,29.40,North,360,3.0,9.0,54,0.00,,,0.00,Rainwise IP-100,2013-06-09 18:12:00,
2013-06-09 14:17:00,71.3,54.5,29.40,North,360,2.0,8.0,56,0.00,,,0.00,Rainwise IP-100,2013-06-09 18:17:00,
2013-06-09 14:22:00,71.9,55.0,29.40,NNE,22,4.0,7.0,56,0.00,,,0.00,Rainwise IP-100,2013-06-09 18:22:00,
2013-06-09 14:27:00,72.3,57.0,29.40,North,360,2.0,9.0,59,0.00,,,0.00,Rainwise IP-100,2013-06-09 18:27:00,
2013-06-09 14:32:00,72.7,56.0,29.40,East,90,2.0,4.0,55,0.00,,,0.00,Rainwise IP-100,2013-06-09 18:32:00,
2013-06-09 14:37:00,71.7,53.5,29.40,NNE,22,2.0,7.0,52,0.00,,,0.00,Rainwise IP-100,2013-06-09 18:37:00,
2013-06-09 14:42:00,71.9,55.0,29.40,NNE,22,5.0,8.0,56,0.00,,,0.00,Rainwise IP-100,2013-06-09 18:42:00,
2013-06-09 14:47:00,71.7,53.0,29.40,NNE,22,6.0,9.0,51,0.00,,,0.00,Rainwise IP-100,2013-06-09 18:47:00,
2013-06-09 14:52:00,71.9,54.0,29.40,NNE,22,2.0,9.0,53,0.00,,,0.00,Rainwise IP-100,2013-06-09 18:52:00,
2013-06-09 14:57:00,73.4,59.0,29.40,North,360,4.0,7.0,60,0.00,,,0.00,Rainwise IP-100,2013-06-09 18:57:00,
2013-06-09 15:02:00,72.4,53.5,29.40,NNE,22,5.0,8.0,51,0.00,,,0.00,Rainwise IP-100,2013-06-09 19:02:00,
2013-06-09 15:07:00,72.7,55.0,29.41,NNE,22,1.0,7.0,54,0.00,,,0.00,Rainwise IP-100,2013-06-09 19:07:00,
2013-06-09 15:12:00,73.6,56.0,29.40,NE,45,2.0,6.0,54,0.00,,,0.00,Rainwise IP-100,2013-06-09 19:12:00,
2013-06-09 15:17:00,73.2,53.0,29.40,NNE,22,3.0,6.0,48,0.00,,,0.00,Rainwise IP-100,2013-06-09 19:17:00,
2013-06-09 15:22:00,73.8,54.5,29.41,NNE,22,3.0,6.0,51,0.00,,,0.00,Rainwise IP-100,2013-06-09 19:22:00,
2013-06-09 15:27:00,74.5,55.0,29.41,NE,45,2.0,4.0,50,0.00,,,0.00,Rainwise IP-100,2013-06-09 19:27:00,
2013-06-09 15:32:00,74.9,53.0,29.40,North,360,6.0,6.0,46,0.00,,,0.00,Rainwise IP-100,2013-06-09 19:32:00,
2013-06-09 15:37:00,75.5,56.0,29.40,SE,135,0.0,7.0,50,0.00,,,0.00,Rainwise IP-100,2013-06-09 19:37:00,
2013-06-09 15:42:00,74.8,53.5,29.40,North,360,2.0,4.0,47,0.00,,,0.00,Rainwise IP-100,2013-06-09 19:42:00,
2013-06-09 15:47:00,75.4,55.0,29.40,SE,135,3.0,3.0,49,0.00,,,0.00,Rainwise IP-100,2013-06-09 19:47:00,
2013-06-09 15:52:00,75.1,53.5,29.40,SE,135,2.0,4.0,47,0.00,,,0.00,Rainwise IP-100,2013-06-09 19:52:00,
2013-06-09 15:57:00,74.6,53.0,29.40,SE,135,1.0,3.0,46,0.00,,,0.00,Rainwise IP-100,2013-06-09 19:57:00,
2013-06-09 16:02:00,74.9,53.5,29.40,North,360,4.0,4.0,47,0.00,,,0.00,Rainwise IP-100,2013-06-09 20:02:00,
2013-06-09 16:07:00,74.5,53.0,29.40,North,360,4.0,6.0,46,0.00,,,0.00,Rainwise IP-100,2013-06-09 20:07:00,
2013-06-09 16:12:00,73.9,51.0,29.39,NE,45,2.0,6.0,45,0.00,,,0.00,Rainwise IP-100,2013-06-09 20:12:00,
2013-06-09 16:17:00,74.6,52.0,29.39,North,360,2.0,6.0,45,0.00,,,0.00,Rainwise IP-100,2013-06-09 20:17:00,
2013-06-09 16:22:00,75.3,54.5,29.39,ESE,112,2.0,4.0,48,0.00,,,0.00,Rainwise IP-100,2013-06-09 20:22:00,
2013-06-09 16:27:00,74.7,53.0,29.39,North,360,3.0,4.0,46,0.00,,,0.00,Rainwise IP-100,2013-06-09 20:27:00,
2013-06-09 16:32:00,74.7,56.0,29.39,NW,315,0.0,4.0,52,0.00,,,0.00,Rainwise IP-100,2013-06-09 20:32:00,
2013-06-09 16:37:00,75.3,52.0,29.39,North,360,3.0,3.0,44,0.00,,,0.00,Rainwise IP-100,2013-06-09 20:37:00,
2013-06-09 16:42:00,75.5,53.5,29.39,East,90,1.0,6.0,46,0.00,,,0.00,Rainwise IP-100,2013-06-09 20:42:00,
2013-06-09 16:47:00,75.9,51.0,29.38,NNE,22,2.0,4.0,42,0.00,,,0.00,Rainwise IP-100,2013-06-09 20:47:00,
2013-06-09 16:52:00,76.5,54.0,29.39,SE,135,1.0,3.0,46,0.00,,,0.00,Rainwise IP-100,2013-06-09 20:52:00,
2013-06-09 16:57:00,75.9,52.0,29.39,NE,45,1.0,2.0,43,0.00,,,0.00,Rainwise IP-100,2013-06-09 20:57:00,
2013-06-09 17:02:00,77.4,54.0,29.39,North,360,2.0,2.0,44,0.00,,,0.00,Rainwise IP-100,2013-06-09 21:02:00,
2013-06-09 17:07:00,77.7,53.0,29.39,North,360,2.0,4.0,42,0.00,,,0.00,Rainwise IP-100,2013-06-09 21:07:00,
2013-06-09 17:12:00,77.3,52.0,29.39,NW,315,2.0,3.0,41,0.00,,,0.00,Rainwise IP-100,2013-06-09 21:12:00,
2013-06-09 17:17:00,77.5,52.0,29.39,South,180,2.0,3.0,41,0.00,,,0.00,Rainwise IP-100,2013-06-09 21:17:00,
2013-06-09 17:22:00,76.2,51.0,29.39,North,360,3.0,6.0,42,0.00,,,0.00,Rainwise IP-100,2013-06-09 21:22:00,
2013-06-09 17:27:00,76.4,51.0,29.39,NNW,337,1.0,6.0,41,0.00,,,0.00,Rainwise IP-100,2013-06-09 21:27:00,
2013-06-09 17:32:00,76.7,53.5,29.38,NNW,337,3.0,6.0,44,0.00,,,0.00,Rainwise IP-100,2013-06-09 21:32:00,
2013-06-09 17:37:00,76.8,51.0,29.38,North,360,2.0,6.0,41,0.00,,,0.00,Rainwise IP-100,2013-06-09 21:37:00,
2013-06-09 17:42:00,76.7,52.0,29.38,North,360,4.0,4.0,42,0.00,,,0.00,Rainwise IP-100,2013-06-09 21:42:00,
2013-06-09 17:47:00,76.8,51.0,29.38,North,360,1.0,4.0,41,0.00,,,0.00,Rainwise IP-100,2013-06-09 21:47:00,
2013-06-09 17:52:00,77.3,54.5,29.38,North,360,2.0,3.0,45,0.00,,,0.00,Rainwise IP-100,2013-06-09 21:52:00,
2013-06-09 17:57:00,75.1,50.5,29.38,NE,45,2.0,5.0,42,0.00,,,0.00,Rainwise IP-100,2013-06-09 21:57:00,
2013-06-09 18:02:00,75.5,53.0,29.38,North,360,2.0,4.0,45,0.00,,,0.00,Rainwise IP-100,2013-06-09 22:02:00,
2013-06-09 18:07:00,75.8,54.0,29.38,North,360,0.0,2.0,47,0.00,,,0.00,Rainwise IP-100,2013-06-09 22:07:00,
2013-06-09 18:12:00,75.7,54.5,29.38,North,360,0.0,4.0,48,0.00,,,0.00,Rainwise IP-100,2013-06-09 22:12:00,
2013-06-09 18:17:00,75.7,56.0,29.38,North,360,1.0,0.0,50,0.00,,,0.00,Rainwise IP-100,2013-06-09 22:17:00,
2013-06-09 18:22:00,74.8,55.0,29.38,North,360,2.0,2.0,50,0.00,,,0.00,Rainwise IP-100,2013-06-09 22:22:00,
2013-06-09 18:27:00,74.9,53.0,29.38,NNE,22,4.0,4.0,45,0.00,,,0.00,Rainwise IP-100,2013-06-09 22:27:00,
2013-06-09 18:33:00,74.9,54.0,29.37,NNW,337,2.0,4.0,48,0.00,,,0.00,Rainwise IP-100,2013-06-09 22:33:00,
2013-06-09 18:38:00,74.9,54.5,29.37,North,360,1.0,4.0,49,0.00,,,0.00,Rainwise IP-100,2013-06-09 22:38:00,
2013-06-09 18:42:00,74.4,53.5,29.38,NNE,22,2.0,4.0,48,0.00,,,0.00,Rainwise IP-100,2013-06-09 22:42:00,
2013-06-09 18:47:00,73.9,54.0,29.38,NNE,22,2.0,4.0,49,0.00,,,0.00,Rainwise IP-100,2013-06-09 22:47:00,
2013-06-09 18:52:00,74.1,54.0,29.38,North,360,2.0,4.0,49,0.00,,,0.00,Rainwise IP-100,2013-06-09 22:52:00,
2013-06-09 18:57:00,74.5,56.0,29.38,NNE,22,0.0,3.0,52,0.00,,,0.00,Rainwise IP-100,2013-06-09 22:57:00,
2013-06-09 19:02:00,75.2,56.5,29.38,NNE,22,0.0,0.0,52,0.00,,,0.00,Rainwise IP-100,2013-06-09 23:02:00,
2013-06-09 19:07:00,75.5,53.5,29.39,North,360,1.0,2.0,46,0.00,,,0.00,Rainwise IP-100,2013-06-09 23:07:00,
2013-06-09 19:12:00,74.5,54.5,29.39,North,360,2.0,2.0,49,0.00,,,0.00,Rainwise IP-100,2013-06-09 23:12:00,
2013-06-09 19:17:00,74.6,54.0,29.38,North,360,1.0,2.0,48,0.00,,,0.00,Rainwise IP-100,2013-06-09 23:17:00,
2013-06-09 19:22:00,74.7,55.0,29.38,North,360,0.0,2.0,51,0.00,,,0.00,Rainwise IP-100,2013-06-09 23:22:00,
2013-06-09 19:28:00,73.7,53.5,29.39,ESE,112,2.0,2.0,49,0.00,,,0.00,Rainwise IP-100,2013-06-09 23:28:00,
2013-06-09 19:33:00,73.9,56.5,29.38,ESE,112,0.0,2.0,54,0.00,,,0.00,Rainwise IP-100,2013-06-09 23:33:00,
2013-06-09 19:38:00,73.9,55.0,29.39,ESE,112,0.0,0.0,52,0.00,,,0.00,Rainwise IP-100,2013-06-09 23:38:00,
2013-06-09 19:43:00,73.3,56.5,29.38,ESE,112,0.0,0.0,55,0.00,,,0.00,Rainwise IP-100,2013-06-09 23:43:00,
2013-06-09 19:48:00,72.8,56.0,29.38,ESE,112,0.0,0.0,56,0.00,,,0.00,Rainwise IP-100,2013-06-09 23:48:00,
2013-06-09 19:53:00,71.9,54.5,29.38,ESE,112,0.0,0.0,54,0.00,,,0.00,Rainwise IP-100,2013-06-09 23:53:00,
2013-06-09 19:58:00,71.1,54.5,29.38,ESE,112,0.0,0.0,57,0.00,,,0.00,Rainwise IP-100,2013-06-09 23:58:00,
2013-06-09 20:03:00,70.4,56.5,29.37,ESE,112,0.0,0.0,61,0.00,,,0.00,Rainwise IP-100,2013-06-10 00:03:00,
2013-06-09 20:08:00,69.3,57.5,29.37,ESE,112,0.0,0.0,66,0.00,,,0.00,Rainwise IP-100,2013-06-10 00:08:00,
2013-06-09 20:13:00,68.6,57.0,29.37,West,270,1.0,2.0,67,0.00,,,0.00,Rainwise IP-100,2013-06-10 00:13:00,
2013-06-09 20:18:00,68.1,57.5,29.37,West,270,2.0,2.0,69,0.00,,,0.00,Rainwise IP-100,2013-06-10 00:18:00,
2013-06-09 20:23:00,67.4,56.5,29.37,WSW,247,1.0,2.0,67,0.00,,,0.00,Rainwise IP-100,2013-06-10 00:23:00,
2013-06-09 20:28:00,67.1,56.0,29.37,WSW,247,1.0,2.0,67,0.00,,,0.00,Rainwise IP-100,2013-06-10 00:28:00,
2013-06-09 20:33:00,66.4,57.0,29.37,WSW,247,2.0,2.0,73,0.00,,,0.00,Rainwise IP-100,2013-06-10 00:33:00,
2013-06-09 20:38:00,65.5,57.5,29.37,WSW,247,2.0,2.0,76,0.00,,,0.00,Rainwise IP-100,2013-06-10 00:38:00,
2013-06-09 20:43:00,65.3,57.0,29.36,WSW,247,0.0,2.0,75,0.00,,,0.00,Rainwise IP-100,2013-06-10 00:43:00,
2013-06-09 20:48:00,64.8,56.0,29.36,WSW,247,2.0,2.0,72,0.00,,,0.00,Rainwise IP-100,2013-06-10 00:48:00,
2013-06-09 20:53:00,65.3,54.5,29.36,WSW,247,1.0,2.0,69,0.00,,,0.00,Rainwise IP-100,2013-06-10 00:53:00,
2013-06-09 20:58:00,65.3,55.0,29.36,WSW,247,2.0,2.0,70,0.00,,,0.00,Rainwise IP-100,2013-06-10 00:58:00,
2013-06-09 21:03:00,64.6,56.0,29.36,WSW,247,2.0,3.0,73,0.00,,,0.00,Rainwise IP-100,2013-06-10 01:03:00,
2013-06-09 21:08:00,64.1,56.0,29.37,WSW,247,2.0,2.0,75,0.00,,,0.00,Rainwise IP-100,2013-06-10 01:08:00,
2013-06-09 21:13:00,63.6,57.0,29.36,West,270,2.0,2.0,80,0.00,,,0.00,Rainwise IP-100,2013-06-10 01:13:00,
2013-06-09 21:18:00,63.3,58.0,29.36,West,270,2.0,2.0,83,0.00,,,0.00,Rainwise IP-100,2013-06-10 01:18:00,
2013-06-09 21:23:00,63.4,56.5,29.36,West,270,0.0,2.0,78,0.00,,,0.00,Rainwise IP-100,2013-06-10 01:23:00,
2013-06-09 21:28:00,63.1,56.0,29.36,West,270,1.0,2.0,78,0.00,,,0.00,Rainwise IP-100,2013-06-10 01:28:00,
2013-06-09 21:33:00,63.1,57.5,29.36,West,270,2.0,2.0,82,0.00,,,0.00,Rainwise IP-100,2013-06-10 01:33:00,
2013-06-09 21:38:00,63.5,55.0,29.36,WSW,247,1.0,3.0,75,0.00,,,0.00,Rainwise IP-100,2013-06-10 01:38:00,
2013-06-09 21:43:00,63.4,56.0,29.36,WSW,247,2.0,2.0,76,0.00,,,0.00,Rainwise IP-100,2013-06-10 01:43:00,
2013-06-09 21:48:00,63.0,57.0,29.36,WSW,247,2.0,3.0,81,0.00,,,0.00,Rainwise IP-100,2013-06-10 01:48:00,
2013-06-09 21:53:00,62.9,57.0,29.36,WSW,247,2.0,3.0,81,0.00,,,0.00,Rainwise IP-100,2013-06-10 01:53:00,
2013-06-09 21:58:00,62.8,56.0,29.36,West,270,2.0,3.0,78,0.00,,,0.00,Rainwise IP-100,2013-06-10 01:58:00,
2013-06-09 22:03:00,62.7,56.0,29.37,West,270,0.0,2.0,79,0.00,,,0.00,Rainwise IP-100,2013-06-10 02:03:00,
2013-06-09 22:08:00,62.3,56.5,29.37,West,270,2.0,2.0,80,0.00,,,0.00,Rainwise IP-100,2013-06-10 02:08:00,
2013-06-09 22:13:00,62.2,55.0,29.37,West,270,2.0,2.0,79,0.00,,,0.00,Rainwise IP-100,2013-06-10 02:13:00,
2013-06-09 22:18:00,62.4,55.0,29.37,WSW,247,3.0,3.0,78,0.00,,,0.00,Rainwise IP-100,2013-06-10 02:18:00,
2013-06-09 22:23:00,61.8,57.5,29.36,WSW,247,2.0,3.0,85,0.00,,,0.00,Rainwise IP-100,2013-06-10 02:23:00,
2013-06-09 22:28:00,61.4,56.5,29.36,WSW,247,3.0,3.0,84,0.00,,,0.00,Rainwise IP-100,2013-06-10 02:28:00,
2013-06-09 22:33:00,61.4,56.0,29.36,WSW,247,2.0,3.0,81,0.00,,,0.00,Rainwise IP-100,2013-06-10 02:33:00,
2013-06-09 22:38:00,61.6,55.0,29.36,WSW,247,1.0,2.0,80,0.00,,,0.00,Rainwise IP-100,2013-06-10 02:38:00,
2013-06-09 22:43:00,61.8,56.0,29.36,WSW,247,0.0,2.0,80,0.00,,,0.00,Rainwise IP-100,2013-06-10 02:43:00,
2013-06-09 22:48:00,61.5,56.0,29.36,WSW,247,0.0,1.0,81,0.00,,,0.00,Rainwise IP-100,2013-06-10 02:48:00,
2013-06-09 22:53:00,61.1,56.0,29.36,WSW,247,1.0,2.0,83,0.00,,,0.00,Rainwise IP-100,2013-06-10 02:53:00,
2013-06-09 22:58:00,60.9,56.0,29.36,WSW,247,1.0,2.0,84,0.00,,,0.00,Rainwise IP-100,2013-06-10 02:58:00,
2013-06-09 23:03:00,60.9,56.0,29.36,WSW,247,2.0,2.0,83,0.00,,,0.00,Rainwise IP-100,2013-06-10 03:03:00,
2013-06-09 23:08:00,61.2,56.5,29.36,West,270,2.0,4.0,85,0.00,,,0.00,Rainwise IP-100,2013-06-10 03:08:00,
2013-06-09 23:13:00,61.1,57.5,29.36,WSW,247,1.0,4.0,88,0.00,,,0.00,Rainwise IP-100,2013-06-10 03:13:00,
2013-06-09 23:18:00,60.6,56.5,29.35,WSW,247,2.0,2.0,86,0.00,,,0.00,Rainwise IP-100,2013-06-10 03:18:00,
2013-06-09 23:23:00,60.7,57.0,29.35,WSW,247,2.0,3.0,89,0.00,,,0.00,Rainwise IP-100,2013-06-10 03:23:00,
2013-06-09 23:28:00,60.5,56.5,29.35,WSW,247,3.0,4.0,87,0.00,,,0.00,Rainwise IP-100,2013-06-10 03:28:00,
2013-06-09 23:33:00,60.5,57.0,29.35,WSW,247,2.0,3.0,89,0.00,,,0.00,Rainwise IP-100,2013-06-10 03:33:00,
2013-06-09 23:38:00,60.5,57.5,29.35,WSW,247,1.0,4.0,90,0.00,,,0.00,Rainwise IP-100,2013-06-10 03:38:00,
2013-06-09 23:43:00,60.4,57.5,29.34,WSW,247,2.0,3.0,91,0.00,,,0.00,Rainwise IP-100,2013-06-10 03:43:00,
2013-06-09 23:48:00,60.3,57.5,29.35,SW,225,1.0,3.0,90,0.00,,,0.00,Rainwise IP-100,2013-06-10 03:48:00,
2013-06-09 23:53:00,59.9,56.5,29.34,SW,225,0.0,2.0,88,0.00,,,0.00,Rainwise IP-100,2013-06-10 03:53:00,
2013-06-09 23:58:00,59.7,56.0,29.34,SW,225,0.0,0.0,88,0.00,,,0.00,Rainwise IP-100,2013-06-10 03:58:00,